Regional Weather Roundup
Issued by NWS

Home | Current Version | Previous Version | Text Only | Print | Product List | Glossary Off
Versions: 1 2 3 4 5 6 7 8 9 10 11 12 13 14 15 16 17 18 19 20 21 22 23 24 25 26 27 28 29 30 31 32 33 34 35 36 37 38 39 40 41 42 43 44 45 46 47 48 49 50

000
ASUS43 KLSX 100407
RWRMO

WEATHER SUMMARY FOR MISSOURI
NATIONAL WEATHER SERVICE SPRINGFIELD MO
1000 PM CST FRI DEC 09 2016

NOTE: "FAIR" INDICATES FEW OR NO CLOUDS BELOW 12,000 FEET WITH NO
       SIGNIFICANT WEATHER AND/OR OBSTRUCTIONS TO VISIBILITY.
       CURRENT SKY AND/OR WEATHER CONDITIONS ARE NOT AVAILABLE FOR
       CHILLICOTHE AND FARMINGTON.

MOZ001>031-035>038-043-044-053-054-100500-
...NORTHERN AND WESTERN MISSOURI...

CITY           SKY/WX    TMP DP  RH WIND       PRES   REMARKS
KANSAS CTY INT CLOUDY    26  12  55 SE6       30.50F WCI  19
KANSAS C DTWN  CLOUDY    28  11  48 SE7       30.52F WCI  21
LEE`S SUMMIT   CLOUDY    27  11  51 E5        30.52S WCI  22
ST JOSEPH      CLOUDY    26  12  55 SE5       30.52F WCI  20
CHILLICOTHE      N/A     25   9  50 SE3       30.55F
KIRKSVILLE     CLOUDY    23  14  68 S3        30.54S

$$
MOZ066>068-077>081-088>096-101>105-100500-
...SOUTHWEST MISSOURI...

CITY           SKY/WX    TMP DP  RH WIND       PRES   REMARKS
SPRINGFIELD    CLOUDY    31  11  43 S6        30.50S WCI  25
JOPLIN         CLOUDY    31  16  54 MISG      30.52F
BRANSON        CLOUDY    28  16  59 SE8       30.53R WCI  20

$$
MOZ032>034-039>042-045>050-055>058-069>072-100500-
...CENTRAL MISSOURI...

CITY           SKY/WX    TMP DP  RH WIND       PRES   REMARKS
COLUMBIA       CLOUDY    24  13  62 E5        30.54F WCI  18
JEFFERSON CITY CLOUDY    25  13  60 SE3       30.57S
ROLLA          CLOUDY    21  12  68 E6        30.52S WCI  13
SEDALIA        CLOUDY    26  11  52 E3        30.55R
WHITEMAN AFB   CLOUDY    26  11  52 CALM      30.53R
WARRENSBURG    CLOUDY    27  12  54 NE3       30.54S
OSAGE BEACH    CLOUDY    25  12  58 CALM      30.54F

$$
MOZ051-052-059>065-100500-
...EAST CENTRAL MISSOURI...

CITY           SKY/WX    TMP DP  RH WIND       PRES   REMARKS
ST LOUIS INTL  CLOUDY    25  13  60 CALM      30.59S
SPIRIT OF STL  MOCLDY    19  15  84 CALM      30.59S
ST CHARLES     CLOUDY    22  19  89 CALM      30.59S

$$
MOZ072>076-082>087-097>100-106>115-100500-
...SOUTH CENTRAL AND SOUTHEAST MISSOURI...

CITY           SKY/WX    TMP DP  RH WIND       PRES   REMARKS
CAPE GIRARDEAU CLEAR     24  20  84 CALM      30.60R
FARMINGTON     CLEAR     17  12  80 CALM      30.56S
POPLAR BLUFF   CLEAR     22  20  92 CALM      30.60R
WEST PLAINS    CLOUDY    26  16  65 CALM      30.54F

$$



USA.gov is the U.S. government's official web portal to all federal, state and local government web resources and services.